TimeCDT,TemperatureF,Dew PointF,Humidity,Sea Level PressureIn,VisibilityMPH,Wind Direction,Wind SpeedMPH,Gust SpeedMPH,PrecipitationIn,Events,Conditions,WindDirDegrees,DateUTC
12:15 AM,64.2,53.2,67,29.71,10.0,South,16.1,-,N/A,,Mostly Cloudy,190,2014-04-13 05:15:00
12:35 AM,64.4,53.6,68,29.71,10.0,SSW,12.7,-,N/A,,Mostly Cloudy,200,2014-04-13 05:35:00
12:55 AM,63.7,53.6,70,29.69,10.0,SSW,18.4,21.9,N/A,,Scattered Clouds,200,2014-04-13 05:55:00
1:15 AM,64.4,53.8,68,29.70,10.0,SSW,20.7,26.5,N/A,,Mostly Cloudy,210,2014-04-13 06:15:00
1:35 AM,63.7,53.8,70,29.70,10.0,SSW,17.3,23.0,N/A,,Overcast,210,2014-04-13 06:35:00
1:55 AM,63.3,53.6,71,29.70,10.0,SSW,15.0,-,N/A,,Overcast,210,2014-04-13 06:55:00
2:15 AM,63.0,53.6,71,29.69,10.0,SSW,15.0,-,N/A,,Scattered Clouds,210,2014-04-13 07:15:00
2:35 AM,62.8,53.6,72,29.69,10.0,SW,17.3,20.7,N/A,,Clear,220,2014-04-13 07:35:00
2:55 AM,62.6,53.6,72,29.67,10.0,SSW,15.0,25.3,N/A,,Scattered Clouds,210,2014-04-13 07:55:00
3:15 AM,63.0,53.6,71,29.68,10.0,SW,18.4,24.2,N/A,,Mostly Cloudy,230,2014-04-13 08:15:00
3:35 AM,63.5,53.6,70,29.69,10.0,SW,17.3,26.5,N/A,Rain,Light Rain,220,2014-04-13 08:35:00
3:55 AM,64.4,53.4,67,29.68,10.0,SW,17.3,21.9,N/A,,Scattered Clouds,230,2014-04-13 08:55:00
4:15 AM,64.8,53.1,66,29.67,10.0,SW,17.3,25.3,N/A,,Clear,230,2014-04-13 09:15:00
4:35 AM,63.7,53.2,69,29.67,10.0,SW,16.1,21.9,N/A,,Clear,220,2014-04-13 09:35:00
4:55 AM,63.3,53.4,70,29.68,10.0,SW,15.0,-,N/A,,Clear,220,2014-04-13 09:55:00
5:15 AM,62.8,53.4,71,29.68,10.0,SW,13.8,-,N/A,,Clear,220,2014-04-13 10:15:00
5:35 AM,62.2,53.2,72,29.67,10.0,SW,16.1,21.9,N/A,,Clear,220,2014-04-13 10:35:00
5:55 AM,61.7,53.2,74,29.68,10.0,SW,15.0,20.7,N/A,,Clear,220,2014-04-13 10:55:00
6:15 AM,61.2,53.2,75,29.69,10.0,SW,15.0,-,N/A,,Clear,230,2014-04-13 11:15:00
6:35 AM,60.8,53.4,77,29.70,10.0,SW,17.3,-,N/A,,Clear,220,2014-04-13 11:35:00
6:55 AM,61.0,53.6,77,29.71,10.0,SW,16.1,21.9,N/A,,Scattered Clouds,220,2014-04-13 11:55:00
7:15 AM,61.5,53.6,75,29.72,10.0,SW,16.1,-,N/A,,Overcast,220,2014-04-13 12:15:00
7:35 AM,62.6,53.6,72,29.75,10.0,WSW,10.4,-,N/A,,Overcast,250,2014-04-13 12:35:00
7:45 AM,62.6,53.6,72,29.75,10.0,WSW,11.5,-,N/A,,Overcast,250,2014-04-13 12:45:00
7:55 AM,62.1,53.6,74,29.75,10.0,WSW,10.4,-,N/A,,Mostly Cloudy,240,2014-04-13 12:55:00
8:15 AM,63.9,54.1,71,29.74,10.0,WSW,12.7,-,N/A,,Scattered Clouds,250,2014-04-13 13:15:00
8:35 AM,63.3,54.0,71,29.73,10.0,WSW,10.4,-,N/A,,Scattered Clouds,240,2014-04-13 13:35:00
8:45 AM,64.4,55.4,73,29.73,10.0,SW,15.0,-,N/A,,Scattered Clouds,230,2014-04-13 13:45:00
8:55 AM,65.5,54.7,68,29.73,10.0,SW,12.7,-,N/A,,Scattered Clouds,220,2014-04-13 13:55:00
9:15 AM,66.4,54.7,66,29.73,10.0,SW,15.0,-,N/A,,Clear,220,2014-04-13 14:15:00
9:25 AM,66.2,55.4,68,29.73,10.0,SW,12.7,-,N/A,,Clear,230,2014-04-13 14:25:00
9:35 AM,67.3,54.5,63,29.74,10.0,SW,17.3,20.7,N/A,,Clear,230,2014-04-13 14:35:00
9:45 AM,66.2,55.4,68,29.74,10.0,WSW,11.5,-,N/A,,Clear,240,2014-04-13 14:45:00
9:55 AM,68.0,54.7,62,29.74,10.0,WSW,13.8,-,N/A,,Clear,240,2014-04-13 14:55:00
10:05 AM,68.0,55.4,64,29.74,10.0,WSW,12.7,18.4,N/A,,Clear,240,2014-04-13 15:05:00
10:15 AM,68.0,55.0,63,29.73,10.0,SW,10.4,-,N/A,,Clear,230,2014-04-13 15:15:00
10:35 AM,69.4,55.2,60,29.73,10.0,SW,11.5,-,N/A,,Clear,230,2014-04-13 15:35:00
10:55 AM,69.8,55.4,60,29.73,10.0,SW,13.8,-,N/A,,Clear,220,2014-04-13 15:55:00
11:15 AM,70.0,55.0,59,29.73,10.0,SW,10.4,-,N/A,,Clear,230,2014-04-13 16:15:00
11:35 AM,70.7,55.4,58,29.74,10.0,SW,16.1,19.6,N/A,,Clear,220,2014-04-13 16:35:00
11:55 AM,70.0,55.4,60,29.75,10.0,SSW,13.8,-,N/A,,Clear,210,2014-04-13 16:55:00
12:15 PM,69.8,55.6,61,29.76,10.0,SW,13.8,-,N/A,,Scattered Clouds,220,2014-04-13 17:15:00
12:35 PM,68.4,55.4,63,29.75,10.0,SW,11.5,-,N/A,,Mostly Cloudy,230,2014-04-13 17:35:00
12:55 PM,68.4,55.8,64,29.74,10.0,SW,10.4,-,N/A,,Light Drizzle,220,2014-04-13 17:55:00
1:15 PM,66.0,56.3,71,29.73,10.0,SW,11.5,-,N/A,Rain,Light Rain,230,2014-04-13 18:15:00
1:25 PM,66.2,57.2,73,29.73,10.0,SW,10.4,-,N/A,Rain,Light Rain,220,2014-04-13 18:25:00
1:35 PM,66.0,57.0,73,29.72,10.0,SW,8.1,-,N/A,,Light Drizzle,230,2014-04-13 18:35:00
1:55 PM,62.2,52.2,70,29.71,10.0,ENE,16.1,20.7,N/A,,Overcast,60,2014-04-13 18:55:00
2:15 PM,52.0,46.8,82,29.71,10.0,ENE,15.0,-,N/A,,Overcast,60,2014-04-13 19:15:00
2:25 PM,51.8,46.4,82,29.69,10.0,ENE,15.0,-,N/A,Rain,Light Rain,70,2014-04-13 19:25:00
2:35 PM,50.9,47.1,87,29.70,7.0,East,15.0,-,N/A,,Drizzle,80,2014-04-13 19:35:00
2:45 PM,51.8,48.2,88,29.71,7.0,East,15.0,-,N/A,Rain,Rain,80,2014-04-13 19:45:00
2:55 PM,50.7,49.3,95,29.72,7.0,East,10.4,-,N/A,,Light Drizzle,100,2014-04-13 19:55:00
3:15 PM,50.5,50.0,98,29.71,7.0,East,10.4,-,N/A,,Light Drizzle,100,2014-04-13 20:15:00
3:35 PM,50.5,50.0,98,29.70,5.0,East,11.5,-,N/A,Rain,Light Rain,80,2014-04-13 20:35:00
3:55 PM,50.5,50.4,99,29.68,7.0,ENE,13.8,-,N/A,,Overcast,70,2014-04-13 20:55:00
4:15 PM,51.6,51.6,100,29.65,7.0,East,12.7,-,N/A,,Overcast,80,2014-04-13 21:15:00
4:25 PM,51.8,51.8,100,29.64,7.0,East,12.7,-,N/A,,Overcast,80,2014-04-13 21:25:00
4:35 PM,51.4,51.3,99,29.64,5.0,East,10.4,-,0.01,Rain,Light Rain,80,2014-04-13 21:35:00
4:55 PM,52.0,52.0,100,29.63,5.0,East,9.2,-,0.01,,Light Drizzle,80,2014-04-13 21:55:00
5:05 PM,51.8,51.8,100,29.62,5.0,East,8.1,-,N/A,,Drizzle,80,2014-04-13 22:05:00
5:15 PM,52.7,52.7,100,29.61,4.0,East,9.2,-,N/A,,Drizzle,90,2014-04-13 22:15:00
5:35 PM,52.7,52.7,100,29.60,3.0,East,8.1,-,0.02,Rain,Rain,100,2014-04-13 22:35:00
5:45 PM,53.6,53.6,100,29.59,3.0,East,8.1,-,0.02,,Overcast,90,2014-04-13 22:45:00
5:55 PM,53.1,53.1,100,29.59,2.5,ESE,8.1,-,0.02,,Overcast,110,2014-04-13 22:55:00
6:15 PM,54.1,54.1,100,29.58,1.5,ESE,8.1,-,0.12,Rain,Rain,110,2014-04-13 23:15:00
6:35 PM,55.2,55.2,100,29.54,2.0,East,6.9,-,0.14,Rain,Light Rain,80,2014-04-13 23:35:00
6:45 PM,55.4,55.4,100,29.54,2.0,ESE,5.8,-,0.14,Rain,Light Rain,110,2014-04-13 23:45:00
6:55 PM,57.0,57.0,100,29.55,2.0,SSE,6.9,-,0.14,,Overcast,150,2014-04-13 23:55:00
7:15 PM,61.0,61.0,100,29.57,7.0,South,19.6,25.3,0.01,,Drizzle,190,2014-04-14 00:15:00
7:35 PM,61.7,61.7,100,29.55,4.0,South,17.3,26.5,0.04,Rain,Rain,190,2014-04-14 00:35:00
7:55 PM,62.1,62.1,100,29.54,7.0,South,19.6,26.5,0.05,,Overcast,180,2014-04-14 00:55:00
8:15 PM,62.6,62.1,98,29.52,7.0,South,21.9,26.5,0.01,Rain,Light Rain,190,2014-04-14 01:15:00
8:25 PM,62.6,60.8,94,29.52,10.0,South,21.9,26.5,0.01,Rain,Light Rain,190,2014-04-14 01:25:00
8:35 PM,63.0,60.6,92,29.52,10.0,South,23.0,29.9,0.01,,Overcast,190,2014-04-14 01:35:00
8:55 PM,63.3,61.0,92,29.52,10.0,SSW,23.0,29.9,0.01,Rain,Light Rain,200,2014-04-14 01:55:00
9:15 PM,63.7,60.4,89,29.51,10.0,South,21.9,32.2,N/A,,Overcast,190,2014-04-14 02:15:00
9:35 PM,63.9,59.5,86,29.51,10.0,South,19.6,28.8,N/A,,Overcast,190,2014-04-14 02:35:00
9:55 PM,64.4,58.6,82,29.50,10.0,South,24.2,31.1,N/A,,Overcast,190,2014-04-14 02:55:00
10:15 PM,64.4,58.3,80,29.49,10.0,South,24.2,31.1,N/A,,Overcast,190,2014-04-14 03:15:00
10:35 PM,64.0,58.5,82,29.48,10.0,South,21.9,34.5,N/A,,Light Drizzle,190,2014-04-14 03:35:00
10:55 PM,64.4,58.5,81,29.48,10.0,SSW,20.7,36.8,N/A,,Overcast,200,2014-04-14 03:55:00
11:15 PM,64.8,58.5,80,29.47,10.0,SSW,25.3,32.2,N/A,,Overcast,200,2014-04-14 04:15:00
11:35 PM,64.8,58.3,79,29.46,10.0,SSW,29.9,39.1,N/A,,Overcast,210,2014-04-14 04:35:00
11:55 PM,63.5,58.6,84,29.46,10.0,SSW,21.9,34.5,0.01,Rain,Rain,210,2014-04-14 04:55:00